[[{"header":{"parameterUnit":"m.s-1","parameterCategory":1,"la1":30.2991,"la2":30.254,"lo1":-89.0895,"lo2":-89.0444,"dy":0.0017,"dx":0.0017,"nx":28,"ny":28,"refTime":"2025-05-29T21:00:00:Z","depth":0,"parameterNumber":2,"parameterNumberName":"U-component_of_WINDS"},"data":[0,0,0,0,0,0,0,0,0,0,0,0,0,0,0,0,0,0,0,0,0,0,0,0,0,0,0,0,0,0,0,0,0,0,0,0,0,0,0,0,0,0,0,0,0,0,0,0,0,0,0,0,0,0,0,0,0,0,2.5803,2.5803,0,2.5818,2.5818,2.5819,2.5762,2.576,2.5759,2.5757,2.5773,2.5775,2.5776,0,0,0,0,0,0,0,0,0,0,0,0,0,2.5726,2.5727,2.5803,2.5803,2.5803,2.5818,2.5818,2.5819,2.5762,2.576,2.5758,2.5756,2.5772,2.5774,2.5777,0,0,0,0,0,0,0,0,0,0,0,0,0,2.5752,2.5728,2.5803,2.5777,2.5775,2.5818,2.5818,2.5819,2.5763,2.576,2.5758,2.5755,2.5771,2.5774,2.5777,2.5846,0,0,2.5786,2.5787,0,0,0,0,0,0,0,0,2.575,2.5755,2.578,2.5779,2.5776,2.5786,2.5797,2.5828,2.5764,2.5767,2.5757,2.5754,2.5779,2.5781,2.579,2.5847,2.5847,2.5786,2.5788,2.5789,2.579,0,0,0,0,0,0,0,2.5749,2.5754,2.5809,2.5781,2.5778,2.5765,2.5766,2.5802,2.5787,2.5767,2.5763,2.5765,2.5777,2.5787,2.579,2.5847,2.5786,2.5789,2.5791,2.5792,2.5964,2.5967,0,0,0,0,0,0,2.575,2.5753,2.5808,2.5809,2.5757,2.5768,2.5769,2.5785,2.5787,2.5784,2.5768,2.5763,2.5783,2.5786,2.579,2.5871,2.5789,2.5792,2.5794,2.5961,2.5965,2.5968,0,0,0,0,0,0,2.5749,2.5756,2.5808,2.578,2.5785,2.5772,2.5791,2.5787,2.5796,2.5787,2.5784,2.578,2.5781,2.5786,2.5833,2.5871,2.5794,2.5796,2.5958,2.5962,2.5966,2.6034,0,0,0,0,0,0,2.5747,2.5756,2.5781,2.5781,2.5787,2.585,2.5793,2.5789,2.5802,2.5795,2.5798,2.5796,2.578,2.5829,2.5836,2.5874,2.5799,2.5955,2.596,2.5965,2.6028,2.604,2.605,0,0,0,0,0,2.5744,2.5799,2.5782,2.5789,2.5819,2.5852,2.5856,2.5836,2.5805,2.5831,2.5825,2.5796,2.5866,2.5834,2.5842,2.5881,2.5952,2.5958,2.5965,2.6023,2.6038,2.605,0,0,0,0,0,0,2.5802,2.5798,2.578,2.5836,2.5845,2.5843,2.5874,2.5851,2.5869,2.5862,2.5837,2.5838,2.589,2.5891,2.5855,2.5949,2.5904,2.5912,2.5946,2.596,2.597,2.5968,2.5801,0,0,0,0,0,2.5822,2.5849,2.5844,2.5894,2.59,2.5887,2.59,2.5885,2.5893,2.5896,2.5894,2.5903,2.5928,2.5944,2.5966,2.6029,2.6029,2.606,2.6071,2.608,2.6087,2.6122,2.6136,2.5988,2.5988,2.5988,0,0,2.5861,2.5863,2.5881,2.5906,2.5911,2.5941,2.589,2.5923,2.5945,2.5901,2.5945,2.5945,2.5954,2.601,2.6035,2.6012,2.6128,2.6088,2.6095,2.6097,2.613,2.6144,2.6156,2.5993,2.5992,2.5991,0,0,2.5949,2.5953,2.5996,2.6003,2.6012,2.6003,2.6014,2.6016,2.6014,2.6059,2.6027,2.6054,2.6096,2.6104,2.6113,2.6209,2.6183,2.6217,2.6273,2.6307,2.6319,2.6329,2.6363,2.6375,2.6224,2.6224,2.6224,0,2.5997,2.604,2.602,2.6056,2.6068,2.6032,2.6076,2.6084,2.6099,2.6109,2.6084,2.6138,2.6141,2.6199,2.6223,2.6232,2.6243,2.6215,2.6319,2.6329,2.6338,2.637,2.6383,2.6228,2.6228,2.6227,2.6227,0,2.6099,2.613,2.6163,2.6181,2.6197,2.6237,2.6223,2.6243,2.6227,2.6222,2.6269,2.6273,2.6295,2.6308,2.6293,2.6365,2.6351,2.6323,2.6277,2.6356,2.6386,2.6398,2.6234,2.6233,2.6231,2.623,0,0,2.6219,2.6228,2.6241,2.6249,2.6259,2.6282,2.6321,2.6344,2.6361,2.6375,2.6407,2.6446,2.6421,2.6432,2.6418,2.6448,2.6524,2.6416,2.6416,2.6436,2.6605,2.6625,2.6639,2.6508,2.6511,2.6512,2.6604,0,2.6305,2.6371,2.6357,2.6422,2.6451,2.642,2.6454,2.6464,2.6462,2.6486,2.6483,2.6511,2.6476,2.6482,2.6512,2.6509,2.6558,2.6502,2.6538,2.6539,2.6534,2.6655,2.6675,2.6761,2.6615,2.6617,2.6619,0,2.6413,2.6432,2.6501,2.6508,2.6519,2.655,2.6571,2.6595,2.6607,2.6603,2.6618,2.6599,2.6639,2.6595,2.665,2.6613,2.6627,2.6628,2.6631,2.6632,2.6582,2.6657,2.6788,2.68,2.6637,2.6636,2.6634,0,2.6493,2.6536,2.6583,2.6591,2.6601,2.6624,2.6629,2.6638,2.6654,2.6673,2.6683,2.6707,2.672,2.6739,2.6727,2.6696,2.6785,2.6739,2.6782,2.6783,2.68,2.6799,2.6933,2.6812,2.6812,2.6812,2.6812,0,2.6589,2.6632,2.662,2.6648,2.6697,2.6681,2.6729,2.6731,2.674,2.6769,2.6745,2.6772,2.6756,2.6783,2.6775,2.6822,2.6828,2.6826,2.6823,2.6827,2.6828,2.6835,2.6828,2.6815,2.6815,2.6814,2.6813,0,2.6685,2.6678,2.6728,2.6734,2.6737,2.6773,2.6778,2.6806,2.6803,2.684,2.6848,2.6843,2.6874,2.6866,2.6899,2.6893,2.6953,2.6943,2.6949,2.6946,2.6989,2.6985,2.7131,2.7149,2.7018,2.702,2.7021,0,2.6745,2.6778,2.6789,2.6808,2.6815,2.6844,2.6861,2.6848,2.6866,2.6885,2.691,2.6939,2.6961,2.7013,2.7013,2.7039,2.7028,2.7078,2.7032,2.7036,2.7028,2.7026,2.7029,2.7086,2.7088,2.7089,2.709,0,2.6854,2.685,2.6875,2.69,2.6921,2.694,2.6956,2.6972,2.6961,2.6983,2.7015,2.7033,2.7068,2.7098,2.7122,2.7128,2.7108,2.7105,2.7116,2.712,2.7122,2.7121,2.6972,2.7101,2.71,2.7099,2.7099,2.7098,2.6933,2.6961,2.6974,2.7004,2.7016,2.7032,2.7059,2.7061,2.7087,2.7115,2.7107,2.7143,2.7157,2.7188,2.7198,2.7227,2.7208,2.7224,2.7228,2.7232,2.7237,2.7119,2.7232,2.7231,2.7231,2.7231,2.723,0,2.7039,2.7047,2.7074,2.7099,2.7123,2.7104,2.7122,2.7143,2.7176,2.7191,2.7214,2.7252,2.7282,2.7286,2.7314,2.7336,2.7328,2.7344,2.7341,2.7343,2.7252,2.7239,2.7351,2.7351,2.7351,2.7351,2.7351,2.7351,2.7097,2.7144,2.7143,2.7196,2.7204,2.724,2.7252,2.7268,2.728,2.7324,2.7349,2.7352,2.7363,2.7392,2.7419,2.7419,2.743,2.745,2.7447,2.7361,2.7349,2.7338,2.7325,2.7453,2.7453,2.7535,2.7535,2.7536]},{"header":{"parameterUnit":"m.s-1","parameterCategory":1,"la1":30.2991,"la2":30.254,"lo1":-89.0895,"lo2":-89.0444,"dy":0.0017,"dx":0.0017,"nx":28,"ny":28,"refTime":"2025-05-29T21:00:00:Z","depth":0,"parameterNumber":3,"parameterNumberName":"V-component_of_WINDS"},"data":[0,0,0,0,0,0,0,0,0,0,0,0,0,0,0,0,0,0,0,0,0,0,0,0,0,0,0,0,0,0,0,0,0,0,0,0,0,0,0,0,0,0,0,0,0,0,0,0,0,0,0,0,0,0,0,0,0,0,-2.223,-2.223,0,-2.2241,-2.2241,-2.2241,-2.2211,-2.221,-2.2209,-2.2208,-2.222,-2.2221,-2.2223,0,0,0,0,0,0,0,0,0,0,0,0,0,-2.2183,-2.2184,-2.223,-2.223,-2.223,-2.2241,-2.2241,-2.2241,-2.2211,-2.221,-2.2209,-2.2208,-2.222,-2.2221,-2.2223,0,0,0,0,0,0,0,0,0,0,0,0,0,-2.22,-2.2184,-2.2229,-2.2216,-2.2215,-2.2241,-2.2241,-2.2241,-2.2211,-2.221,-2.2209,-2.2207,-2.2219,-2.2221,-2.2223,-2.2262,0,0,-2.2228,-2.2229,0,0,0,0,0,0,0,0,-2.2199,-2.2201,-2.2218,-2.2217,-2.2216,-2.2223,-2.2229,-2.2248,-2.2212,-2.2213,-2.2208,-2.2207,-2.2222,-2.2224,-2.2229,-2.2263,-2.2263,-2.2229,-2.223,-2.223,-2.2231,0,0,0,0,0,0,0,-2.2197,-2.2201,-2.2234,-2.2218,-2.2217,-2.221,-2.2211,-2.2232,-2.2225,-2.2213,-2.2211,-2.2212,-2.2222,-2.2227,-2.2229,-2.2263,-2.2228,-2.223,-2.2231,-2.2232,-2.2331,-2.2332,0,0,0,0,0,0,-2.2198,-2.22,-2.2234,-2.2234,-2.2204,-2.2212,-2.2213,-2.2222,-2.2225,-2.2224,-2.2213,-2.2211,-2.2225,-2.2227,-2.2229,-2.2276,-2.223,-2.2232,-2.2233,-2.2329,-2.2331,-2.2333,0,0,0,0,0,0,-2.2197,-2.2201,-2.2233,-2.2217,-2.222,-2.2214,-2.2225,-2.2223,-2.2229,-2.2226,-2.2224,-2.2221,-2.2224,-2.2227,-2.2254,-2.2276,-2.2233,-2.2234,-2.2327,-2.233,-2.2332,-2.2368,0,0,0,0,0,0,-2.2196,-2.2201,-2.2216,-2.2217,-2.2221,-2.2258,-2.2226,-2.2224,-2.2232,-2.2229,-2.2232,-2.2231,-2.2223,-2.2252,-2.2256,-2.2277,-2.2236,-2.2325,-2.2328,-2.2331,-2.2365,-2.2372,-2.2377,0,0,0,0,0,-2.2194,-2.2225,-2.2216,-2.2221,-2.2239,-2.2259,-2.2261,-2.2251,-2.2234,-2.2249,-2.2247,-2.2231,-2.2273,-2.2255,-2.2259,-2.2282,-2.2324,-2.2328,-2.2331,-2.2362,-2.237,-2.2377,0,0,0,0,0,0,-2.2226,-2.2225,-2.2215,-2.2248,-2.2254,-2.2254,-2.2272,-2.226,-2.2271,-2.2267,-2.2254,-2.2255,-2.2285,-2.2286,-2.2266,-2.232,-2.2296,-2.23,-2.2318,-2.2325,-2.2331,-2.233,-2.2237,0,0,0,0,0,-2.2237,-2.2253,-2.2251,-2.228,-2.2284,-2.2278,-2.2286,-2.2278,-2.2283,-2.2286,-2.2286,-2.2292,-2.2306,-2.2316,-2.2329,-2.2366,-2.2366,-2.2383,-2.2389,-2.2394,-2.2398,-2.2418,-2.2426,-2.2344,-2.2344,-2.2344,0,0,-2.2259,-2.2261,-2.2272,-2.2287,-2.229,-2.2307,-2.228,-2.2299,-2.2311,-2.2288,-2.2314,-2.2315,-2.2321,-2.2353,-2.2368,-2.2355,-2.2421,-2.2399,-2.2403,-2.2404,-2.2422,-2.243,-2.2437,-2.2347,-2.2346,-2.2346,0,0,-2.2309,-2.2312,-2.2336,-2.234,-2.2346,-2.2342,-2.2348,-2.2351,-2.235,-2.2376,-2.2359,-2.2375,-2.24,-2.2405,-2.2411,-2.2465,-2.2451,-2.2469,-2.25,-2.252,-2.2526,-2.2532,-2.255,-2.2557,-2.2473,-2.2473,-2.2474,0,-2.2335,-2.236,-2.235,-2.237,-2.2378,-2.2358,-2.2383,-2.2388,-2.2398,-2.2404,-2.239,-2.2422,-2.2425,-2.2458,-2.2471,-2.2477,-2.2484,-2.2468,-2.2526,-2.2531,-2.2536,-2.2554,-2.2561,-2.2476,-2.2475,-2.2475,-2.2475,0,-2.2393,-2.2411,-2.243,-2.244,-2.245,-2.2473,-2.2466,-2.2477,-2.2469,-2.2466,-2.2494,-2.2497,-2.251,-2.2518,-2.251,-2.2551,-2.2543,-2.2528,-2.2503,-2.2547,-2.2563,-2.257,-2.2479,-2.2478,-2.2477,-2.2477,0,0,-2.2461,-2.2466,-2.2473,-2.2478,-2.2484,-2.2498,-2.252,-2.2534,-2.2544,-2.2552,-2.257,-2.2593,-2.258,-2.2587,-2.2579,-2.2597,-2.2639,-2.2579,-2.2579,-2.259,-2.2684,-2.2695,-2.2703,-2.263,-2.2632,-2.2633,-2.2683,0,-2.2509,-2.2547,-2.2539,-2.2576,-2.2592,-2.2575,-2.2595,-2.2601,-2.26,-2.2614,-2.2613,-2.2629,-2.261,-2.2614,-2.2631,-2.263,-2.2657,-2.2626,-2.2647,-2.2648,-2.2645,-2.2711,-2.2722,-2.277,-2.269,-2.2691,-2.2692,0,-2.257,-2.2581,-2.262,-2.2624,-2.263,-2.2648,-2.266,-2.2674,-2.2681,-2.2679,-2.2688,-2.2678,-2.2701,-2.2677,-2.2708,-2.2687,-2.2696,-2.2697,-2.2699,-2.2699,-2.2672,-2.2713,-2.2785,-2.2792,-2.2702,-2.2701,-2.27,0,-2.2615,-2.2639,-2.2666,-2.2671,-2.2676,-2.2689,-2.2692,-2.2698,-2.2707,-2.2718,-2.2724,-2.2738,-2.2745,-2.2757,-2.2751,-2.2734,-2.2784,-2.2759,-2.2783,-2.2783,-2.2793,-2.2792,-2.2866,-2.28,-2.28,-2.28,-2.28,0,-2.2669,-2.2693,-2.2686,-2.2702,-2.273,-2.2721,-2.2748,-2.2749,-2.2755,-2.2771,-2.2758,-2.2774,-2.2766,-2.2781,-2.2777,-2.2804,-2.2808,-2.2807,-2.2805,-2.2808,-2.2808,-2.2812,-2.2808,-2.2802,-2.2801,-2.2801,-2.2801,0,-2.2723,-2.2719,-2.2747,-2.2751,-2.2752,-2.2772,-2.2775,-2.2791,-2.2789,-2.2811,-2.2815,-2.2813,-2.2831,-2.2827,-2.2846,-2.2843,-2.2877,-2.2872,-2.2875,-2.2873,-2.2897,-2.2895,-2.2976,-2.2986,-2.2914,-2.2915,-2.2915,0,-2.2757,-2.2776,-2.2782,-2.2792,-2.2796,-2.2812,-2.2822,-2.2814,-2.2825,-2.2835,-2.285,-2.2866,-2.2879,-2.2909,-2.2909,-2.2924,-2.2919,-2.2946,-2.2921,-2.2923,-2.2919,-2.2917,-2.2919,-2.2951,-2.2952,-2.2952,-2.2953,0,-2.2818,-2.2816,-2.283,-2.2843,-2.2855,-2.2865,-2.2874,-2.2884,-2.2877,-2.289,-2.2908,-2.2918,-2.2938,-2.2955,-2.297,-2.2973,-2.2962,-2.2961,-2.2968,-2.2969,-2.297,-2.297,-2.2887,-2.2959,-2.2958,-2.2958,-2.2958,-2.2957,-2.2863,-2.2879,-2.2885,-2.2902,-2.2908,-2.2917,-2.2932,-2.2933,-2.2948,-2.2963,-2.2959,-2.298,-2.2988,-2.3006,-2.3011,-2.3028,-2.3018,-2.3027,-2.3029,-2.3031,-2.3034,-2.2968,-2.3031,-2.3031,-2.303,-2.303,-2.303,0,-2.2923,-2.2927,-2.2942,-2.2955,-2.2968,-2.2957,-2.2967,-2.2979,-2.2997,-2.3006,-2.3019,-2.304,-2.3057,-2.306,-2.3076,-2.3089,-2.3084,-2.3093,-2.3091,-2.3093,-2.3042,-2.3035,-2.3096,-2.3096,-2.3096,-2.3096,-2.3096,-2.3096,-2.2955,-2.2981,-2.298,-2.301,-2.3013,-2.3033,-2.304,-2.3049,-2.3056,-2.308,-2.3094,-2.3095,-2.3102,-2.3118,-2.3134,-2.3134,-2.314,-2.3151,-2.315,-2.3103,-2.3096,-2.309,-2.3083,-2.3153,-2.3153,-2.3198,-2.3199,-2.3199]}]]